Miscellaneous Local Product
Issued by NWS Hastings, NE

Home | Current Version | Previous Version | Text Only | Print | Product List | Glossary Off
Versions: 1 2 3 4 5 6 7 8 9 10 11 12 13 14 15 16 17 18 19 20 21 22 23 24 25 26 27 28 29 30 31 32 33 34 35 36 37 38 39 40 41 42 43 44 45 46 47 48 49 50

000
AXUS43 KGID 260302
MISGRI

GID CWA HOURLY WEATHER ROUNDUP
NATIONAL WEATHER SERVICE HASTINGS NE
1000 PM CDT MON MAY 25 2015

NOTE: "FAIR" INDICATES FEW OR NO CLOUDS BELOW 12,000 FEET WITH NO
SIGNIFICANT WEATHER AND/OR OBSTRUCTIONS TO VISIBILITY.

...SOUTH CENTRAL NEBRASKA...

CITY           SKY/WX    TMP DP  RH WIND       PRES   REMARKS
GRAND ISLAND   CLOUDY    63  57  81 SE8       29.77R
HASTINGS       CLOUDY    64  58  80 S5        29.77R
KEARNEY        CLOUDY    66  52  59 W8        29.78R
ORD            CLOUDY    63  57  81 N5        29.77R
YORK           CLOUDY    64  57  77 S13       29.77R
AURORA         CLOUDY    63  58  84 NW6       29.77R
LEXINGTON      PTCLDY    59  52  77 W7        29.79R
HOLDREGE       CLOUDY    65  49  57 W15       29.78S
HEBRON         CLOUDY    64  53  67 W5        29.78R

...NEBRASKA PANHANDLE...

CITY           SKY/WX    TMP DP  RH WIND       PRES   REMARKS
CHADRON        PTCLDY    55  52  89 N5        29.90R
ALLIANCE       PTCLDY    50  49  96 W7        29.89R
SCOTTSBLUFF    MOCLDY    51  50  96 NW5       29.91R
SIDNEY         CLOUDY    48  46  93 NW7       29.92R

...WESTERN AND NORTH CENTRAL NEBRASKA...

CITY           SKY/WX    TMP DP  RH WIND       PRES   REMARKS
VALENTINE      CLOUDY    58  54  86 N5        29.86R
AINSWORTH      PTCLDY    56  55  95 N6        29.85R
ONEILL         PTCLDY    60  58  92 N5        29.79R
BROKEN BOW     MOCLDY    62  54  74 N9        29.80R
IMPERIAL       MOCLDY    56  50  80 NW12      29.88R
NORTH PLATTE   MOCLDY    57  50  77 N9        29.85R
MCCOOK         PTCLDY    59  50  72 W12       29.83R

...EASTERN NEBRASKA...

CITY           SKY/WX    TMP DP  RH WIND       PRES   REMARKS
NORFOLK        CLOUDY    66  57  72 N8        29.76R
SO SIOUX CITY  MOCLDY    68  58  70 N9        29.74R
TEKAMAH        LGT RAIN  64  60  87 S22       29.76S
COLUMBUS       CLOUDY   N/A N/A N/A MISG        N/A
ALBION         CLOUDY    65  56  74 NW15      29.78R
OMAHA EPPLEY   CLOUDY    66  60  81 S10       29.80R
OFFUTT AFB     CLOUDY    64  60  87 S7        29.80R
MILLARD        CLOUDY    65  60  84 SE12      29.79R
LINCOLN        CLOUDY    64  55  72 S13       29.80R
NEBRASKA CITY  CLOUDY    61  60  97 SE12      29.82S
BEATRICE       CLOUDY    64  56  74 E7        29.80R
FALLS CITY     LGT RAIN  61  59  93 SE10      29.82F

...NORTHERN KANSAS...

CITY           SKY/WX    TMP DP  RH WIND       PRES   REMARKS
GOODLAND       PTCLDY    54  47  77 NW7       29.90R
HILL CITY      MOCLDY    65  50  58 NW9       29.82R
NORTON         CLEAR     57  46  67 NW7       29.81R
PHILLIPSBURG   CLEAR     66  55  68 W7        29.79R
SMITH CENTER   CLEAR     63  57  82 S8        29.79R
HAYS           CLOUDY    66  57  72 SE9       29.80R
RUSSELL        LGT RAIN  64  61  90 E8        29.79R
CONCORDIA      CLOUDY    61  56  83 SW6       29.80R
SALINA         LGT RAIN  64  55  72 S18G36    29.77F
TOPEKA         CLOUDY    67  58  72 N14       29.81F



USA.gov is the U.S. government's official web portal to all federal, state and local government web resources and services.